TimeBST,TemperatureF,Dew PointF,Humidity,Sea Level PressureIn,VisibilityMPH,Wind Direction,Wind SpeedMPH,Gust SpeedMPH,PrecipitationIn,Events,Conditions,WindDirDegrees,DateUTC
12:20 AM,59.0,53.6,82,30.36,6.2,ENE,9.2,-,N/A,,Scattered Clouds,60,2013-07-10 23:20:00
12:50 AM,59.0,53.6,82,30.36,6.2,ENE,8.1,-,N/A,,Mostly Cloudy,70,2013-07-10 23:50:00
1:20 AM,57.2,53.6,88,30.36,6.2,ENE,6.9,-,N/A,,Mostly Cloudy,70,2013-07-11 00:20:00
1:50 AM,57.2,51.8,82,30.36,6.2,Variable,3.5,-,N/A,,Mostly Cloudy,0,2013-07-11 00:50:00
2:20 AM,57.2,53.6,88,30.36,6.2,ENE,4.6,-,N/A,,Overcast,60,2013-07-11 01:20:00
2:50 AM,59.0,53.6,82,30.36,6.2,East,5.8,-,N/A,,Overcast,80,2013-07-11 01:50:00
3:20 AM,59.0,53.6,82,30.36,6.2,ENE,5.8,-,N/A,,Mostly Cloudy,70,2013-07-11 02:20:00
3:50 AM,59.0,53.6,82,30.36,6.2,ENE,5.8,-,N/A,,Mostly Cloudy,70,2013-07-11 02:50:00
4:20 AM,59.0,53.6,82,30.36,6.2,ENE,5.8,-,N/A,,Mostly Cloudy,70,2013-07-11 03:20:00
4:50 AM,59.0,53.6,82,30.36,6.2,ENE,6.9,-,N/A,,Mostly Cloudy,70,2013-07-11 03:50:00
5:20 AM,59.0,53.6,82,30.36,6.2,ENE,5.8,-,N/A,,Mostly Cloudy,70,2013-07-11 04:20:00
5:50 AM,59.0,53.6,82,30.33,6.2,ENE,5.8,-,N/A,,Mostly Cloudy,70,2013-07-11 04:50:00
6:20 AM,59.0,53.6,82,30.33,6.2,ENE,6.9,-,N/A,,Mostly Cloudy,60,2013-07-11 05:20:00
6:50 AM,59.0,53.6,82,30.33,6.2,ENE,5.8,-,N/A,,Mostly Cloudy,60,2013-07-11 05:50:00
7:20 AM,60.8,55.4,82,30.33,6.2,NE,4.6,-,N/A,,Mostly Cloudy,40,2013-07-11 06:20:00
7:50 AM,60.8,55.4,82,30.33,6.2,NE,4.6,-,N/A,,Mostly Cloudy,40,2013-07-11 06:50:00
8:20 AM,60.8,55.4,82,30.33,6.2,NNE,4.6,-,N/A,,Mostly Cloudy,30,2013-07-11 07:20:00
8:50 AM,62.6,55.4,77,30.33,6.2,Variable,3.5,-,N/A,,Mostly Cloudy,0,2013-07-11 07:50:00
9:20 AM,64.4,55.4,73,30.33,6.2,Variable,2.3,-,N/A,,Mostly Cloudy,0,2013-07-11 08:20:00
9:50 AM,66.2,57.2,73,30.33,6.2,Variable,2.3,-,N/A,,Mostly Cloudy,0,2013-07-11 08:50:00
10:20 AM,68.0,57.2,68,30.33,6.2,Variable,3.5,-,N/A,,Scattered Clouds,0,2013-07-11 09:20:00
10:50 AM,69.8,59.0,68,30.33,6.2,Variable,2.3,-,N/A,,Partly Cloudy,0,2013-07-11 09:50:00
11:20 AM,71.6,59.0,64,30.33,-9999.0,ESE,4.6,-,N/A,,Clear,110,2013-07-11 10:20:00
11:50 AM,73.4,60.8,65,30.30,-9999.0,Variable,2.3,-,N/A,,Clear,0,2013-07-11 10:50:00
12:20 PM,73.4,62.6,69,30.30,-9999.0,WNW,4.6,-,N/A,,Clear,300,2013-07-11 11:20:00
12:50 PM,75.2,62.6,65,30.30,6.2,West,4.6,-,N/A,,Partly Cloudy,270,2013-07-11 11:50:00
1:20 PM,75.2,62.6,65,30.30,6.2,West,6.9,-,N/A,,Scattered Clouds,260,2013-07-11 12:20:00
1:50 PM,75.2,62.6,65,30.30,6.2,WSW,4.6,-,N/A,,Scattered Clouds,250,2013-07-11 12:50:00
2:20 PM,77.0,64.4,65,30.30,6.2,WSW,6.9,-,N/A,,Scattered Clouds,250,2013-07-11 13:20:00
2:50 PM,77.0,64.4,65,30.30,6.2,SW,9.2,-,N/A,,Scattered Clouds,230,2013-07-11 13:50:00
3:20 PM,77.0,64.4,65,30.27,6.2,SW,9.2,-,N/A,,Partly Cloudy,230,2013-07-11 14:20:00
3:50 PM,77.0,64.4,65,30.27,6.2,WSW,6.9,-,N/A,,Partly Cloudy,250,2013-07-11 14:50:00
4:20 PM,77.0,64.4,65,30.27,6.2,West,6.9,-,N/A,,Partly Cloudy,260,2013-07-11 15:20:00
4:50 PM,77.0,64.4,65,30.27,6.2,SW,9.2,-,N/A,,Partly Cloudy,230,2013-07-11 15:50:00
5:20 PM,75.2,64.4,69,30.27,-9999.0,SW,10.4,-,N/A,,Clear,230,2013-07-11 16:20:00
5:50 PM,75.2,64.4,69,30.27,-9999.0,WSW,9.2,-,N/A,,Clear,240,2013-07-11 16:50:00
6:20 PM,75.2,64.4,69,30.27,-9999.0,WSW,9.2,-,N/A,,Clear,240,2013-07-11 17:20:00
6:50 PM,73.4,64.4,73,30.24,-9999.0,SW,11.5,-,N/A,,Clear,220,2013-07-11 17:50:00
7:20 PM,73.4,64.4,73,30.24,-9999.0,SW,10.4,-,N/A,,Clear,230,2013-07-11 18:20:00
7:50 PM,71.6,64.4,78,30.24,-9999.0,WSW,8.1,-,N/A,,Clear,240,2013-07-11 18:50:00
8:20 PM,71.6,64.4,78,30.24,-9999.0,WSW,8.1,-,N/A,,Clear,240,2013-07-11 19:20:00
8:50 PM,69.8,64.4,83,30.24,-9999.0,SW,6.9,-,N/A,,Clear,230,2013-07-11 19:50:00
9:20 PM,68.0,62.6,83,30.24,-9999.0,WSW,5.8,-,N/A,,Clear,240,2013-07-11 20:20:00
9:50 PM,66.2,60.8,83,30.27,-9999.0,WSW,6.9,-,N/A,,Clear,240,2013-07-11 20:50:00
10:20 PM,64.4,60.8,88,30.27,-9999.0,WSW,5.8,-,N/A,,Clear,250,2013-07-11 21:20:00
10:50 PM,62.6,60.8,94,30.27,-9999.0,West,6.9,-,N/A,,Clear,270,2013-07-11 21:50:00
11:20 PM,62.6,59.0,88,30.27,5.0,West,5.8,-,N/A,,Unknown,260,2013-07-11 22:20:00
11:50 PM,60.8,59.0,94,30.27,4.3,WSW,9.2,-,N/A,,Unknown,240,2013-07-11 22:50:00